Montreal, Quebec

7:51 AM EDT on September 24, 2017 (GMT -0400)
Montreal-Pierre Elliott Trudeau Int'l Airport

Weather History for CYUL - November, 2012

Change the Weather History Date:

Tuesday, November 20, 2012

  Actual Average Record
Temperature  
Mean Temperature 32 °F -  
Max Temperature 42 °F 32 °F 55 °F (2011)
Min Temperature 23 °F 17 °F 21 °F (2008)
Degree Days  
Heating Degree Days 32    
Moisture  
Dew Point 27 °F    
Average Humidity 78    
Maximum Humidity 100    
Minimum Humidity 52    
Precipitation  
Precipitation 0.00 in 0.12 in - ()
Sea Level Pressure  
Sea Level Pressure 30.24 in    
Wind  
Wind Speed 4 mph ()    
Max Wind Speed 7 mph    
Max Gust Speed -    
Visibility 7.9 miles    
Events      
Averages and records for this station are not official NWS values.
T = Trace of Precipitation, MM = Missing Value Source: Averaged Metar Reports

Daily Weather History Graph

Daily Weather History Graph

Search for Another Location

Airport or City:

Trip Planner

Search our weather history database for the weather conditions in past years. The results will help you decide how hot, cold, wet, or windy it might be!

Date:

Astronomy

Nov. 20, 2012 Rise Set
Actual Time 7:01 AM EST 4:19 PM EST
Civil Twilight 6:28 AM EST 4:52 PM EST
Nautical Twilight 5:52 AM EST 5:28 PM EST
Astronomical Twilight 5:17 AM EST 6:03 PM EST
Moon 12:24 PM EST (11/20) No Moon Set
Length of Visible Light 10h 23m
Length of Day
9h 18m
Waxing Crescent, 51% of the Moon is Illuminated
Nov 20
Waxing Crescent
Nov 28
Full
Dec 6
Last Quarter
Dec 13
New
Dec 20
First Quarter

Hourly Weather History & Observations

Time (EST) Temp. Windchill Dew Point Humidity Pressure Visibility Wind Dir Wind Speed Gust Speed Precip Events Conditions
12:00 AM 26.6 °F 21.2 °F 24.8 °F 93% 30.30 in 6.0 mi NNE 4.6 mph - N/A   Clear
1:00 AM 26 °F - 24 °F 90% 30.28 in 6 mi North 4.6 mph - -   Mist
1:00 AM 24.8 °F 19.1 °F 24.8 °F 100% 30.28 in 6.0 mi North 4.6 mph - N/A   Clear
2:00 AM 28.4 °F 24.6 °F 26.6 °F 93% 30.28 in 5.0 mi North 3.5 mph - N/A   Clear
3:00 AM 24.8 °F 20.5 °F 24.8 °F 100% 30.28 in 6.0 mi North 3.5 mph - N/A   Clear
4:00 AM 26.6 °F 22.6 °F 24.8 °F 93% 30.26 in 4.0 mi NNE 3.5 mph - N/A   Partly Cloudy
5:00 AM 26.6 °F 22.6 °F 24.8 °F 93% 30.26 in 4.0 mi North 3.5 mph - N/A   Scattered Clouds
6:00 AM 26.6 °F 22.6 °F 23.0 °F 86% 30.26 in 4.0 mi North 3.5 mph - N/A   Partly Cloudy
6:45 AM 24.8 °F 20.5 °F - N/A% - 2.5 mi NW 3.5 mph - N/A   Partly Cloudy
7:00 AM 26 °F - 23 °F 82% 30.27 in 3 mi NNW 4.6 mph - -   Mist
7:00 AM 26.6 °F 21.2 °F 23.0 °F 86% 30.27 in 3.0 mi NNW 4.6 mph - N/A   Scattered Clouds
8:00 AM 28.4 °F 22.2 °F 24.8 °F 86% 30.27 in 6.0 mi North 5.8 mph - N/A   Haze
9:00 AM 30.2 °F 26.7 °F 24.8 °F 80% 30.26 in 6.0 mi NNE 3.5 mph - N/A   Haze
10:00 AM 35.6 °F 30.7 °F 28.4 °F 75% 30.26 in 8.0 mi NNE 5.8 mph - N/A   Mostly Cloudy
11:00 AM 37.4 °F 34.9 °F 28.4 °F 70% 30.25 in 7.0 mi North 3.5 mph - N/A   Overcast
12:00 PM 41.0 °F - 28.4 °F 61% 30.22 in 7.0 mi NE 1.2 mph - N/A   Overcast
1:00 PM 42 °F - 30 °F 52% 30.21 in 7 mi ESE 2.3 mph - -   Partly Cloudy
1:00 PM 42.8 °F - 30.2 °F 61% 30.21 in 7.0 mi ESE 2.3 mph - N/A   Mostly Cloudy
2:00 PM 42.8 °F 41.1 °F 28.4 °F 57% 30.19 in 8.0 mi North 3.5 mph - N/A   Mostly Cloudy
3:00 PM 42.8 °F 38.6 °F 30.2 °F 61% 30.19 in 10.0 mi North 6.9 mph - N/A   Overcast
4:00 PM 42.8 °F 41.1 °F 28.4 °F 57% 30.19 in 10.0 mi NNE 3.5 mph - N/A   Overcast
5:00 PM 39.2 °F 35.9 °F 32.0 °F 75% 30.19 in 10.0 mi SW 4.6 mph - N/A   Overcast
6:00 PM 35.6 °F 32.8 °F 30.2 °F 81% 30.20 in 12.0 mi West 3.5 mph - N/A   Mostly Cloudy
7:00 PM 35 °F - 30 °F 75% 30.21 in 10 mi NW 4.6 mph - -   Mostly Cloudy
7:00 PM 35.6 °F 31.7 °F 30.2 °F 81% 30.21 in 10.0 mi NW 4.6 mph - N/A   Mostly Cloudy
8:00 PM 37.4 °F 32.8 °F 28.4 °F 70% 30.22 in 12.0 mi North 5.8 mph - N/A   Mostly Cloudy
8:15 PM 35.6 °F 30.7 °F - N/A% - 12.0 mi North 5.8 mph - N/A   Mostly Cloudy
9:00 PM 35.6 °F 30.7 °F 28.4 °F 75% 30.21 in 15.0 mi NNE 5.8 mph - N/A   Mostly Cloudy
10:00 PM 35.6 °F 31.7 °F 28.4 °F 75% 30.20 in 15.0 mi NNE 4.6 mph - N/A   Mostly Cloudy
11:00 PM 35.6 °F 30.7 °F 28.4 °F 75% 30.21 in 15.0 mi North 5.8 mph - N/A   Mostly Cloudy